Location: Bluff Heights
(33.7692°N, 118.1592°W)
Time: 07:20:11
(UTC+00:00)

First-Move - Pass Details

Date: 26 September 2021
Orbit: 574 x 666 km, 97.6° (Epoch: 26 October)

Event Time Altitude Azimuth Distance (km) Brightness Sun altitude
Rises 11:13:23 0° 40° (NE) 2,839 ? -31.4°
Reaches altitude 10° 11:17:34 10° 81° (E) 1,908 ? -30.6°
Maximum altitude 11:18:20 10° 92° (E) 1,874 ? -30.5°
Drops below altitude 10° 11:19:07 10° 103° (ESE) 1,899 ? -30.3°
Sets 11:23:11 0° 144° (SE) 2,776 ? -29.5°
